Duluth, MN

3:12 PM CDT on May 03, 2015 (GMT -0500)
Duluth International | | Change Station
CLOSE
Current Station
Airport
Location: Duluth,
Elevation: 1427 ft
Nearby Weather Stations

Elev 1427 ft 46.84 °N, 92.19 °W | Updated 17 minutes ago

Partly Cloudy
Partly Cloudy
73 °F
Feels Like 73 °F
N
22
Wind Variable Wind from NW
Gusts 31 mph

Today
High -- | Low -- °F
--% Chance of Precip.
Yesterday
High -- | Low -- °F
Precip. -- in
5:50 AM 8:20 PM
Full, 100% visible
Pressure 29.80 in
Visibility 8.0 miles
Clouds Mostly Cloudy 8500 ft
Overcast 11000 ft
Dew Point 34 °F
Humidity 24%
Rainfall 0.00 in
Snow Depth Not available.
UV 2 out of 12
Pollen 11.00 out of 12
Air Quality Not available.
Flu Activity Sporadic
METAR KDLH 031955Z 32019G27KT 8SM BKN085 OVC110 23/01 A2980 RMK AO2 PK WND 32027/1955 SLP091 T02280011

More Conditions Fewer Conditions

Pressure 29.80 in
Visibility 8.0 miles
Clouds Mostly Cloudy 8500 ft
Overcast 11000 ft
Dew Point 34 °F
Humidity 24%
Rainfall 0.00 in
Snow Depth Not available.
UV 2 out of 12
Pollen 11.00 out of 12
Air Quality Not available.
Flu Activity Sporadic
METAR KDLH 031955Z 32019G27KT 8SM BKN085 OVC110 23/01 A2980 RMK AO2 PK WND 32027/1955 SLP091 T02280011

More Conditions Fewer Conditions

Nepal has a long way to go to dig out and rebuild from a devastating earthquake. We have teamed up with several charities and organizations to make contributing to the relief effort as easy as possible.
How you can help: Portlight Strategies | Red Cross

10-Day Weather Forecast

Almanac

Astronomy

May. 03, 2015 Rise Set
Actual Time
Civil Twilight
Nautical Twilight
Astronomical Twilight
Moon
Length of Visible Light
Length of Day
Tomorrow will be .
, % of the Moon is Illuminated

Today's Extremes

State Highs State Lows

Community

WunderPhotos

Upload Photos

1,818,352 photos uploaded!

WunderBlogs® & News

Nearby

Air Quality

  Air Quality AQ Index Pollutant
Not available.

Snow Depth

Station Depth Elevation

Earthquake Activity

City Distance Mag. Time & Date
Minimum magnitude displayed is 2.5.

Coastal Water Temperatures

Place Temperature

Stations

Nearby Weather Stations

Station Location Temp. Windchill Dew Point Humidity Wind Precip. Elev Updated Type